Time,TemperatureF,DewpointF,PressureIn,WindDirection,WindDirectionDegrees,WindSpeedMPH,WindSpeedGustMPH,Humidity,HourlyPrecipIn,Conditions,Clouds,dailyrainin,SoftwareType,DateUTC
2013-04-15 00:05:00,46.8,30.6,29.59,WNW,289,0.0,0.0,53,0.00,,,0.00,Wunderground v.1.15,2013-04-15 05:05:00,
2013-04-15 00:15:00,45.7,30.0,29.59,WNW,284,0.0,0.0,54,0.00,,,0.00,Wunderground v.1.15,2013-04-15 05:15:00,
2013-04-15 00:25:00,45.2,30.0,29.59,West,274,0.0,0.0,55,0.00,,,0.00,Wunderground v.1.15,2013-04-15 05:25:00,
2013-04-15 00:35:00,45.2,30.0,29.60,West,275,0.0,0.0,55,0.00,,,0.00,Wunderground v.1.15,2013-04-15 05:35:00,
2013-04-15 00:40:00,45.4,29.7,29.60,West,277,0.0,0.0,54,0.00,,,0.00,Wunderground v.1.15,2013-04-15 05:40:00,
2013-04-15 00:50:00,45.4,29.7,29.61,West,265,0.0,0.0,54,0.00,,,0.00,Wunderground v.1.15,2013-04-15 05:50:00,
2013-04-15 01:00:00,46.1,29.9,29.61,WSW,251,0.0,0.0,53,0.00,,,0.00,Wunderground v.1.15,2013-04-15 06:00:00,
2013-04-15 01:10:00,46.1,29.9,29.62,WSW,254,0.0,0.0,53,0.00,,,0.00,Wunderground v.1.15,2013-04-15 06:10:00,
2013-04-15 01:20:00,46.1,29.9,29.61,WSW,254,0.0,0.0,53,0.00,,,0.00,Wunderground v.1.15,2013-04-15 06:20:00,
2013-04-15 01:30:00,45.2,29.5,29.61,WNW,284,0.0,0.0,54,0.00,,,0.00,Wunderground v.1.15,2013-04-15 06:30:00,
2013-04-15 01:40:00,44.2,29.0,29.62,West,264,0.0,0.0,55,0.00,,,0.00,Wunderground v.1.15,2013-04-15 06:40:00,
2013-04-15 01:45:00,44.5,28.9,29.62,West,274,0.0,0.0,54,0.00,,,0.00,Wunderground v.1.15,2013-04-15 06:45:00,
2013-04-15 01:55:00,45.1,29.0,29.62,WNW,282,0.0,0.0,53,0.00,,,0.00,Wunderground v.1.15,2013-04-15 06:55:00,
2013-04-15 02:45:00,43.6,27.1,29.62,West,281,0.0,0.0,52,0.00,,,0.00,Wunderground v.1.15,2013-04-15 07:45:00,
2013-04-15 02:50:00,43.5,27.0,29.62,WNW,282,0.0,0.0,52,0.00,,,0.00,Wunderground v.1.15,2013-04-15 07:50:00,
2013-04-15 03:00:00,43.5,26.6,29.62,NW,311,0.0,0.0,51,0.00,,,0.00,Wunderground v.1.15,2013-04-15 08:00:00,
2013-04-15 03:05:00,44.2,26.2,29.60,NW,316,0.0,0.0,49,0.00,,,0.00,Wunderground v.1.15,2013-04-15 08:05:00,
2013-04-15 03:15:00,44.6,26.1,29.60,NNW,337,0.0,0.0,48,0.00,,,0.00,Wunderground v.1.15,2013-04-15 08:15:00,
2013-04-15 03:20:00,44.3,26.3,29.60,NW,313,0.0,0.0,49,0.00,,,0.00,Wunderground v.1.15,2013-04-15 08:20:00,
2013-04-15 03:35:00,42.6,26.2,29.62,NW,312,0.0,0.0,52,0.00,,,0.00,Wunderground v.1.15,2013-04-15 08:35:00,
2013-04-15 03:40:00,42.3,25.9,29.62,NW,312,0.0,0.0,52,0.00,,,0.00,Wunderground v.1.15,2013-04-15 08:40:00,
2013-04-15 03:45:00,42.1,25.7,29.62,NW,312,0.0,0.0,52,0.00,,,0.00,Wunderground v.1.15,2013-04-15 08:45:00,
2013-04-15 03:50:00,41.8,26.4,29.63,NW,312,0.0,0.0,54,0.00,,,0.00,Wunderground v.1.15,2013-04-15 08:50:00,
2013-04-15 03:55:00,42.1,25.7,29.63,SSW,212,0.0,0.0,52,0.00,,,0.00,Wunderground v.1.15,2013-04-15 08:55:00,
2013-04-15 04:00:00,42.6,26.2,29.63,SSW,212,0.0,0.0,52,0.00,,,0.00,Wunderground v.1.15,2013-04-15 09:00:00,
2013-04-15 04:10:00,42.9,26.9,29.64,SSW,202,0.0,0.0,53,0.00,,,0.00,Wunderground v.1.15,2013-04-15 09:10:00,
2013-04-15 04:20:00,42.2,27.6,29.66,South,186,0.0,0.0,56,0.00,,,0.00,Wunderground v.1.15,2013-04-15 09:20:00,
2013-04-15 04:30:00,43.2,27.7,29.66,South,185,0.0,0.0,54,0.00,,,0.00,Wunderground v.1.15,2013-04-15 09:30:00,
2013-04-15 04:40:00,43.6,28.5,29.67,South,188,0.0,0.0,55,0.00,,,0.00,Wunderground v.1.15,2013-04-15 09:40:00,
2013-04-15 04:50:00,43.5,28.4,29.67,South,185,0.0,0.0,55,0.00,,,0.00,Wunderground v.1.15,2013-04-15 09:50:00,
2013-04-15 05:00:00,44.1,27.6,29.67,South,185,0.0,0.0,52,0.00,,,0.00,Wunderground v.1.15,2013-04-15 10:00:00,
2013-04-15 05:10:00,44.1,28.5,29.67,South,185,0.0,0.0,54,0.00,,,0.00,Wunderground v.1.15,2013-04-15 10:10:00,
2013-04-15 05:15:00,44.1,27.6,29.67,South,185,0.0,0.0,52,0.00,,,0.00,Wunderground v.1.15,2013-04-15 10:15:00,
2013-04-15 05:25:00,44.3,27.8,29.69,South,185,0.0,0.0,52,0.00,,,0.00,Wunderground v.1.15,2013-04-15 10:25:00,
2013-04-15 05:30:00,44.2,27.7,29.69,South,185,0.0,0.0,52,0.00,,,0.00,Wunderground v.1.15,2013-04-15 10:30:00,
2013-04-15 05:40:00,43.6,28.0,29.70,South,185,0.0,0.0,54,0.00,,,0.00,Wunderground v.1.15,2013-04-15 10:40:00,
2013-04-15 05:50:00,43.5,27.9,29.70,South,185,0.0,0.0,54,0.00,,,0.00,Wunderground v.1.15,2013-04-15 10:50:00,
2013-04-15 06:00:00,43.8,27.8,29.70,South,185,0.0,0.0,53,0.00,,,0.00,Wunderground v.1.15,2013-04-15 11:00:00,
2013-04-15 06:10:00,43.9,27.4,29.70,South,185,0.0,0.0,52,0.00,,,0.00,Wunderground v.1.15,2013-04-15 11:10:00,
2013-04-15 06:20:00,44.1,27.6,29.71,South,185,0.0,0.0,52,0.00,,,0.00,Wunderground v.1.15,2013-04-15 11:20:00,
2013-04-15 06:30:00,44.2,27.2,29.71,South,185,0.0,0.0,51,0.00,,,0.00,Wunderground v.1.15,2013-04-15 11:30:00,
2013-04-15 06:35:00,44.5,27.5,29.71,South,185,0.0,0.0,51,0.00,,,0.00,Wunderground v.1.15,2013-04-15 11:35:00,
2013-04-15 06:45:00,44.6,28.0,29.71,South,185,0.0,0.0,52,0.00,,,0.00,Wunderground v.1.15,2013-04-15 11:45:00,
2013-04-15 06:55:00,44.3,27.8,29.71,South,185,0.0,0.0,52,0.00,,,0.00,Wunderground v.1.15,2013-04-15 11:55:00,
2013-04-15 07:05:00,44.8,27.3,29.72,South,185,0.0,0.0,50,0.00,,,0.00,Wunderground v.1.15,2013-04-15 12:05:00,
2013-04-15 07:10:00,44.9,27.4,29.72,SSW,192,0.0,0.0,50,0.00,,,0.00,Wunderground v.1.15,2013-04-15 12:10:00,
2013-04-15 07:20:00,44.9,29.7,29.73,WNW,294,0.0,0.0,55,0.00,,,0.00,Wunderground v.1.15,2013-04-15 12:20:00,
2013-04-15 07:25:00,44.6,29.0,29.73,WNW,288,0.0,0.0,54,0.00,,,0.00,Wunderground v.1.15,2013-04-15 12:25:00,
2013-04-15 07:30:00,44.8,28.7,29.73,NW,313,0.0,0.0,53,0.00,,,0.00,Wunderground v.1.15,2013-04-15 12:30:00,
2013-04-15 07:40:00,44.9,27.8,29.74,NNW,328,0.0,0.0,51,0.00,,,0.00,Wunderground v.1.15,2013-04-15 12:40:00,
2013-04-15 07:45:00,45.1,28.0,29.74,NW,313,0.0,0.0,51,0.00,,,0.00,Wunderground v.1.15,2013-04-15 12:45:00,
2013-04-15 07:55:00,44.5,27.5,29.74,NW,323,0.0,0.0,51,0.00,,,0.00,Wunderground v.1.15,2013-04-15 12:55:00,
2013-04-15 08:00:00,44.1,27.6,29.74,NNW,328,0.0,0.0,52,0.00,,,0.00,Wunderground v.1.15,2013-04-15 13:00:00,
2013-04-15 08:10:00,43.5,27.9,29.75,NW,326,0.0,0.0,54,0.00,,,0.00,Wunderground v.1.15,2013-04-15 13:10:00,
2013-04-15 08:15:00,43.3,28.2,29.75,NNW,329,0.0,0.0,55,0.00,,,0.00,Wunderground v.1.15,2013-04-15 13:15:00,
2013-04-15 08:25:00,43.5,28.8,29.76,NNW,336,0.0,0.0,56,0.00,,,0.00,Wunderground v.1.15,2013-04-15 13:25:00,
2013-04-15 08:35:00,43.5,28.8,29.76,NNW,339,0.0,0.0,56,0.00,,,0.00,Wunderground v.1.15,2013-04-15 13:35:00,
2013-04-15 08:45:00,43.6,28.5,29.76,NNW,332,0.0,0.0,55,0.00,,,0.00,Wunderground v.1.15,2013-04-15 13:45:00,
2013-04-15 08:55:00,43.6,28.9,29.77,NW,322,0.0,0.0,56,0.00,,,0.00,Wunderground v.1.15,2013-04-15 13:55:00,
2013-04-15 09:00:00,43.5,28.4,29.77,NNW,329,0.0,0.0,55,0.00,,,0.00,Wunderground v.1.15,2013-04-15 14:00:00,
2013-04-15 09:10:00,43.3,26.8,29.78,NW,304,0.0,0.0,52,0.00,,,0.00,Wunderground v.1.15,2013-04-15 14:10:00,
2013-04-15 09:15:00,43.2,26.3,29.78,NW,320,0.0,0.0,51,0.00,,,0.00,Wunderground v.1.15,2013-04-15 14:15:00,
2013-04-15 09:25:00,43.2,25.8,29.78,NW,325,0.0,0.0,50,0.00,,,0.00,Wunderground v.1.15,2013-04-15 14:25:00,
2013-04-15 09:35:00,43.3,25.9,29.78,NW,326,0.0,0.0,50,0.00,,,0.00,Wunderground v.1.15,2013-04-15 14:35:00,
2013-04-15 09:45:00,43.6,25.7,29.78,NNW,339,0.0,0.0,49,0.00,,,0.00,Wunderground v.1.15,2013-04-15 14:45:00,
2013-04-15 10:00:00,43.3,25.9,29.78,North,356,0.0,0.0,50,0.00,,,0.00,Wunderground v.1.15,2013-04-15 15:00:00,
2013-04-15 10:05:00,43.6,26.6,29.78,North,0,0.0,0.0,51,0.00,,,0.00,Wunderground v.1.15,2013-04-15 15:05:00,
2013-04-15 10:15:00,43.6,26.6,29.78,NW,326,0.0,0.0,51,0.00,,,0.00,Wunderground v.1.15,2013-04-15 15:15:00,
2013-04-15 10:30:00,43.8,26.3,29.78,North,0,0.0,0.0,50,0.00,,,0.00,Wunderground v.1.15,2013-04-15 15:30:00,
2013-04-15 10:40:00,43.9,26.4,29.78,North,7,0.0,0.0,50,0.00,,,0.00,Wunderground v.1.15,2013-04-15 15:40:00,
2013-04-15 10:50:00,43.8,24.3,29.78,NW,322,0.0,0.0,46,0.00,,,0.00,Wunderground v.1.15,2013-04-15 15:50:00,
2013-04-15 11:00:00,43.9,24.9,29.78,NW,315,0.0,0.0,47,0.00,,,0.00,Wunderground v.1.15,2013-04-15 16:00:00,
2013-04-15 11:05:00,43.9,24.9,29.79,North,356,0.0,0.0,47,0.00,,,0.00,Wunderground v.1.15,2013-04-15 16:05:00,
2013-04-15 11:15:00,43.9,23.4,29.79,NNW,329,0.0,0.0,44,0.00,,,0.00,Wunderground v.1.15,2013-04-15 16:15:00,
2013-04-15 11:25:00,44.2,22.0,29.81,NW,318,0.0,0.0,41,0.00,,,0.00,Wunderground v.1.15,2013-04-15 16:25:00,
2013-04-15 11:35:00,44.2,22.5,29.81,NNW,330,0.0,0.0,42,0.00,,,0.00,Wunderground v.1.15,2013-04-15 16:35:00,
2013-04-15 11:45:00,44.6,22.9,29.81,NNW,347,0.0,0.0,42,0.00,,,0.00,Wunderground v.1.15,2013-04-15 16:45:00,
2013-04-15 11:55:00,44.5,23.9,29.81,NNW,346,0.0,0.0,44,0.00,,,0.00,Wunderground v.1.15,2013-04-15 16:55:00,
2013-04-15 12:00:00,44.3,23.7,29.81,NE,40,0.0,0.0,44,0.00,,,0.00,Wunderground v.1.15,2013-04-15 17:00:00,
2013-04-15 12:10:00,44.3,23.2,29.81,North,356,0.0,0.0,43,0.00,,,0.00,Wunderground v.1.15,2013-04-15 17:10:00,
2013-04-15 12:20:00,44.6,24.0,29.82,North,0,0.0,0.0,44,0.00,,,0.00,Wunderground v.1.15,2013-04-15 17:20:00,
2013-04-15 12:25:00,44.8,24.2,29.82,North,10,0.0,0.0,44,0.00,,,0.00,Wunderground v.1.15,2013-04-15 17:25:00,
2013-04-15 12:35:00,44.9,23.2,29.82,North,0,0.0,0.0,42,0.00,,,0.00,Wunderground v.1.15,2013-04-15 17:35:00,
2013-04-15 12:40:00,45.4,24.2,29.82,NW,322,0.0,0.0,43,0.00,,,0.00,Wunderground v.1.15,2013-04-15 17:40:00,
2013-04-15 12:45:00,45.5,23.7,29.82,North,1,0.0,0.0,42,0.00,,,0.00,Wunderground v.1.15,2013-04-15 17:45:00,
2013-04-15 12:50:00,45.8,24.5,29.82,North,359,0.0,0.0,43,0.00,,,0.00,Wunderground v.1.15,2013-04-15 17:50:00,
2013-04-15 13:00:00,46.0,23.6,29.82,North,0,0.0,0.0,41,0.00,,,0.00,Wunderground v.1.15,2013-04-15 18:00:00,
2013-04-15 13:05:00,46.2,23.8,29.82,North,0,0.0,0.0,41,0.00,,,0.00,Wunderground v.1.15,2013-04-15 18:05:00,
2013-04-15 13:10:00,46.2,23.8,29.82,North,0,0.0,0.0,41,0.00,,,0.00,Wunderground v.1.15,2013-04-15 18:10:00,
2013-04-15 13:20:00,47.0,23.3,29.82,North,359,0.0,0.0,39,0.00,,,0.00,Wunderground v.1.15,2013-04-15 18:20:00,
2013-04-15 13:25:00,47.3,23.6,29.82,North,3,0.0,0.0,39,0.00,,,0.00,Wunderground v.1.15,2013-04-15 18:25:00,
2013-04-15 13:30:00,47.4,23.7,29.82,North,10,0.0,0.0,39,0.00,,,0.00,Wunderground v.1.15,2013-04-15 18:30:00,
2013-04-15 13:35:00,47.6,21.9,29.81,North,1,0.0,0.0,36,0.00,,,0.00,Wunderground v.1.15,2013-04-15 18:35:00,
2013-04-15 13:45:00,48.0,22.9,29.81,North,7,0.0,0.0,37,0.00,,,0.00,Wunderground v.1.15,2013-04-15 18:45:00,
2013-04-15 13:50:00,48.2,23.1,29.81,North,0,0.0,0.0,37,0.00,,,0.00,Wunderground v.1.15,2013-04-15 18:50:00,
2013-04-15 13:55:00,48.5,23.4,29.81,NNE,18,0.0,0.0,37,0.00,,,0.00,Wunderground v.1.15,2013-04-15 18:55:00,
2013-04-15 14:00:00,49.1,23.3,29.81,North,0,0.0,0.0,36,0.00,,,0.00,Wunderground v.1.15,2013-04-15 19:00:00,
2013-04-15 14:05:00,48.6,22.8,29.80,North,6,0.0,0.0,36,0.00,,,0.00,Wunderground v.1.15,2013-04-15 19:05:00,
2013-04-15 14:15:00,48.8,23.0,29.80,NNW,332,0.0,0.0,36,0.00,,,0.00,Wunderground v.1.15,2013-04-15 19:15:00,
2013-04-15 14:25:00,48.9,23.7,29.80,North,0,0.0,0.0,37,0.00,,,0.00,Wunderground v.1.15,2013-04-15 19:25:00,
2013-04-15 14:30:00,48.5,23.4,29.80,North,0,0.0,0.0,37,0.00,,,0.00,Wunderground v.1.15,2013-04-15 19:30:00,
2013-04-15 14:40:00,48.3,23.2,29.80,North,1,0.0,0.0,37,0.00,,,0.00,Wunderground v.1.15,2013-04-15 19:40:00,
2013-04-15 14:45:00,47.9,23.5,29.80,North,359,0.0,0.0,38,0.00,,,0.00,Wunderground v.1.15,2013-04-15 19:45:00,
2013-04-15 14:55:00,47.6,23.8,29.80,North,0,0.0,0.0,39,0.00,,,0.00,Wunderground v.1.15,2013-04-15 19:55:00,
2013-04-15 15:00:00,47.4,24.3,29.80,North,0,0.0,0.0,40,0.00,,,0.00,Wunderground v.1.15,2013-04-15 20:00:00,
2013-04-15 15:05:00,47.3,24.8,29.79,NNW,346,0.0,0.0,41,0.00,,,0.00,Wunderground v.1.15,2013-04-15 20:05:00,
2013-04-15 15:10:00,47.4,24.9,29.79,NNW,344,0.0,0.0,41,0.00,,,0.00,Wunderground v.1.15,2013-04-15 20:10:00,
2013-04-15 15:15:00,47.4,24.9,29.79,North,0,0.0,0.0,41,0.00,,,0.00,Wunderground v.1.15,2013-04-15 20:15:00,
2013-04-15 15:20:00,47.4,24.9,29.79,North,3,0.0,0.0,41,0.00,,,0.00,Wunderground v.1.15,2013-04-15 20:20:00,
2013-04-15 15:25:00,47.6,26.2,29.79,North,352,0.0,0.0,43,0.00,,,0.00,Wunderground v.1.15,2013-04-15 20:25:00,
2013-04-15 15:30:00,47.7,25.7,29.79,North,10,0.0,0.0,42,0.00,,,0.00,Wunderground v.1.15,2013-04-15 20:30:00,
2013-04-15 15:40:00,47.7,25.1,29.79,NNE,16,0.0,0.0,41,0.00,,,0.00,Wunderground v.1.15,2013-04-15 20:40:00,
2013-04-15 15:45:00,47.7,25.1,29.79,North,0,0.0,0.0,41,0.00,,,0.00,Wunderground v.1.15,2013-04-15 20:45:00,
2013-04-15 15:55:00,47.6,25.6,29.78,NNE,20,0.0,0.0,42,0.00,,,0.00,Wunderground v.1.15,2013-04-15 20:55:00,
2013-04-15 16:05:00,47.7,25.7,29.78,North,356,0.0,0.0,42,0.00,,,0.00,Wunderground v.1.15,2013-04-15 21:05:00,
2013-04-15 16:10:00,47.6,26.7,29.78,North,354,0.0,0.0,44,0.00,,,0.00,Wunderground v.1.15,2013-04-15 21:10:00,
2013-04-15 16:20:00,47.7,26.3,29.77,North,6,0.0,0.0,43,0.00,,,0.00,Wunderground v.1.15,2013-04-15 21:20:00,
2013-04-15 16:25:00,47.7,26.3,29.77,North,359,0.0,0.0,43,0.00,,,0.00,Wunderground v.1.15,2013-04-15 21:25:00,
2013-04-15 16:35:00,47.6,26.7,29.77,North,356,0.0,0.0,44,0.00,,,0.00,Wunderground v.1.15,2013-04-15 21:35:00,
2013-04-15 16:45:00,47.6,26.2,29.77,NNE,17,0.0,0.0,43,0.00,,,0.00,Wunderground v.1.15,2013-04-15 21:45:00,
2013-04-15 16:55:00,47.6,26.7,29.78,North,3,0.0,0.0,44,0.00,,,0.00,Wunderground v.1.15,2013-04-15 21:55:00,
2013-04-15 17:05:00,47.4,26.0,29.78,North,7,0.0,0.0,43,0.00,,,0.00,Wunderground v.1.15,2013-04-15 22:05:00,
2013-04-15 17:15:00,47.6,26.2,29.78,North,356,0.0,0.0,43,0.00,,,0.00,Wunderground v.1.15,2013-04-15 22:15:00,
2013-04-15 17:20:00,47.4,26.6,29.79,North,1,0.0,0.0,44,0.00,,,0.00,Wunderground v.1.15,2013-04-15 22:20:00,
2013-04-15 17:30:00,47.4,26.0,29.79,North,0,0.0,0.0,43,0.00,,,0.00,Wunderground v.1.15,2013-04-15 22:30:00,
2013-04-15 17:40:00,47.4,27.1,29.79,NNE,14,0.0,0.0,45,0.00,,,0.00,Wunderground v.1.15,2013-04-15 22:40:00,
2013-04-15 17:45:00,47.3,27.0,29.79,NNE,23,0.0,0.0,45,0.00,,,0.00,Wunderground v.1.15,2013-04-15 22:45:00,
2013-04-15 17:55:00,46.8,26.0,29.80,NNE,25,0.0,0.0,44,0.00,,,0.00,Wunderground v.1.15,2013-04-15 22:55:00,
2013-04-15 18:05:00,46.7,26.5,29.81,NNE,30,0.0,0.0,45,0.00,,,0.00,Wunderground v.1.15,2013-04-15 23:05:00,
2013-04-15 18:15:00,46.7,27.5,29.81,North,0,0.0,0.0,47,0.00,,,0.00,Wunderground v.1.15,2013-04-15 23:15:00,
2013-04-15 18:20:00,46.7,27.5,29.81,NNE,21,0.0,0.0,47,0.00,,,0.00,Wunderground v.1.15,2013-04-15 23:20:00,
2013-04-15 18:30:00,46.8,27.6,29.81,NE,41,0.0,0.0,47,0.00,,,0.00,Wunderground v.1.15,2013-04-15 23:30:00,
2013-04-15 18:40:00,46.7,26.5,29.81,NNE,16,0.0,0.0,45,0.00,,,0.00,Wunderground v.1.15,2013-04-15 23:40:00,
2013-04-15 18:50:00,46.5,25.7,29.82,NNE,17,0.0,0.0,44,0.00,,,0.00,Wunderground v.1.15,2013-04-15 23:50:00,
2013-04-15 19:00:00,46.5,26.8,29.82,NNE,17,0.0,0.0,46,0.00,,,0.00,Wunderground v.1.15,2013-04-16 00:00:00,
2013-04-15 19:05:00,46.4,26.7,29.83,NNE,13,0.0,0.0,46,0.00,,,0.00,Wunderground v.1.15,2013-04-16 00:05:00,
2013-04-15 19:15:00,46.4,27.2,29.83,NE,35,0.0,0.0,47,0.00,,,0.00,Wunderground v.1.15,2013-04-16 00:15:00,
2013-04-15 19:25:00,46.2,27.1,29.83,NE,35,0.0,0.0,47,0.00,,,0.00,Wunderground v.1.15,2013-04-16 00:25:00,
2013-04-15 19:35:00,46.2,27.1,29.84,NNE,20,0.0,0.0,47,0.00,,,0.00,Wunderground v.1.15,2013-04-16 00:35:00,
2013-04-15 19:45:00,46.1,27.5,29.84,NNE,24,0.0,0.0,48,0.00,,,0.00,Wunderground v.1.15,2013-04-16 00:45:00,
2013-04-15 19:50:00,46.0,27.4,29.85,NNE,23,0.0,0.0,48,0.00,,,0.00,Wunderground v.1.15,2013-04-16 00:50:00,
2013-04-15 20:00:00,45.7,27.6,29.85,North,359,0.0,0.0,49,0.00,,,0.00,Wunderground v.1.15,2013-04-16 01:00:00,
2013-04-15 20:10:00,45.2,27.2,29.86,North,3,0.0,0.0,49,0.00,,,0.00,Wunderground v.1.15,2013-04-16 01:10:00,
2013-04-15 20:15:00,45.2,27.2,29.86,NNE,16,0.0,0.0,49,0.00,,,0.00,Wunderground v.1.15,2013-04-16 01:15:00,
2013-04-15 20:25:00,44.8,26.8,29.87,NNE,30,0.0,0.0,49,0.00,,,0.00,Wunderground v.1.15,2013-04-16 01:25:00,
2013-04-15 20:35:00,44.6,27.1,29.88,NNE,21,0.0,0.0,50,0.00,,,0.00,Wunderground v.1.15,2013-04-16 01:35:00,
2013-04-15 20:45:00,44.5,27.5,29.88,NNE,25,0.0,0.0,51,0.00,,,0.00,Wunderground v.1.15,2013-04-16 01:45:00,
2013-04-15 20:55:00,44.3,27.8,29.89,North,3,0.0,0.0,52,0.00,,,0.00,Wunderground v.1.15,2013-04-16 01:55:00,
2013-04-15 21:00:00,44.2,27.7,29.89,NE,38,0.0,0.0,52,0.00,,,0.00,Wunderground v.1.15,2013-04-16 02:00:00,
2013-04-15 21:10:00,44.2,27.7,29.90,North,0,0.0,0.0,52,0.00,,,0.00,Wunderground v.1.15,2013-04-16 02:10:00,
2013-04-15 21:20:00,44.1,28.0,29.91,NNE,23,0.0,0.0,53,0.00,,,0.00,Wunderground v.1.15,2013-04-16 02:20:00,
2013-04-15 21:30:00,43.9,28.3,29.91,NNE,21,0.0,0.0,54,0.00,,,0.00,Wunderground v.1.15,2013-04-16 02:30:00,
2013-04-15 21:40:00,43.8,28.7,29.92,NNE,28,0.0,0.0,55,0.00,,,0.00,Wunderground v.1.15,2013-04-16 02:40:00,
2013-04-15 21:45:00,43.6,28.5,29.92,NNE,24,0.0,0.0,55,0.00,,,0.00,Wunderground v.1.15,2013-04-16 02:45:00,
2013-04-15 21:55:00,43.3,28.2,29.93,NE,37,0.0,0.0,55,0.00,,,0.00,Wunderground v.1.15,2013-04-16 02:55:00,
2013-04-15 22:00:00,43.3,28.2,29.93,North,1,0.0,0.0,55,0.00,,,0.00,Wunderground v.1.15,2013-04-16 03:00:00,
2013-04-15 22:10:00,43.3,28.6,29.94,NNE,25,0.0,0.0,56,0.00,,,0.00,Wunderground v.1.15,2013-04-16 03:10:00,
2013-04-15 22:20:00,43.2,28.5,29.94,NNE,21,0.0,0.0,56,0.00,,,0.00,Wunderground v.1.15,2013-04-16 03:20:00,
2013-04-15 22:25:00,43.2,28.5,29.94,NNE,21,0.0,0.0,56,0.00,,,0.00,Wunderground v.1.15,2013-04-16 03:25:00,
2013-04-15 22:35:00,43.2,28.5,29.94,NNE,14,0.0,0.0,56,0.00,,,0.00,Wunderground v.1.15,2013-04-16 03:35:00,
2013-04-15 22:45:00,43.1,28.9,29.94,NE,35,0.0,0.0,57,0.00,,,0.00,Wunderground v.1.15,2013-04-16 03:45:00,
2013-04-15 22:50:00,43.1,28.9,29.94,North,8,0.0,0.0,57,0.00,,,0.00,Wunderground v.1.15,2013-04-16 03:50:00,
2013-04-15 23:00:00,42.8,29.0,29.94,NNE,21,0.0,0.0,58,0.00,,,0.00,Wunderground v.1.15,2013-04-16 04:00:00,
2013-04-15 23:10:00,42.6,28.8,29.94,NNE,21,0.0,0.0,58,0.00,,,0.00,Wunderground v.1.15,2013-04-16 04:10:00,
2013-04-15 23:15:00,42.6,28.8,29.94,NNE,16,0.0,0.0,58,0.00,,,0.00,Wunderground v.1.15,2013-04-16 04:15:00,
2013-04-15 23:20:00,42.5,28.8,29.93,North,11,0.0,0.0,58,0.00,,,0.00,Wunderground v.1.15,2013-04-16 04:20:00,
2013-04-15 23:25:00,42.5,29.2,29.93,NNE,27,0.0,0.0,59,0.00,,,0.00,Wunderground v.1.15,2013-04-16 04:25:00,
2013-04-15 23:30:00,42.5,29.2,29.93,NNE,18,0.0,0.0,59,0.00,,,0.00,Wunderground v.1.15,2013-04-16 04:30:00,
2013-04-15 23:40:00,42.3,29.4,29.93,North,11,0.0,0.0,60,0.00,,,0.00,Wunderground v.1.15,2013-04-16 04:40:00,
2013-04-15 23:45:00,42.3,29.4,29.93,North,356,0.0,0.0,60,0.00,,,0.00,Wunderground v.1.15,2013-04-16 04:45:00,
2013-04-15 23:50:00,42.2,29.3,29.94,NNE,31,0.0,0.0,60,0.00,,,0.00,Wunderground v.1.15,2013-04-16 04:50:00,
2013-04-15 23:55:00,42.2,29.3,29.94,NNE,30,0.0,0.0,60,0.00,,,0.00,Wunderground v.1.15,2013-04-16 04:55:00,